Location: Audruicq
(50.8780°N, 2.0797°E)
Time: 20:09:05
(UTC+00:00)

Cosmos 2219 Rocket - Pass Details

Date: 15 May 2026
Orbit: 826 x 846 km, 71.0° (Epoch: 8 June)

Event Time Altitude Azimuth Distance (km) Brightness Sun altitude
Rises 20:12:54 0° 332° (NNW) 3,403 6.9 -5.7°
Reaches altitude 10° 20:15:41 10° 343° (NNW) 2,468 5.7 -6.0°
Maximum altitude 20:20:37 30° 44° (NE) 1,488 3.5 -6.6°
Drops below altitude 10° 20:25:32 10° 104° (ESE) 2,467 4.1 -7.2°
Enters shadow 20:26:32 - 109° (ESE) 2,793 4.3 -7.3°
